Skip Page Navigation
NASA JPL Caltech
NASA Logo - Jet Propulsion Laboratory + View the NASA Portal
+ Center for Near-Earth Object Studies
JPL Home Earth Solar System Stars & Galaxies Technology
JPL Solar System Dynamics
BODIES ORBITS EPHEMERIDES TOOLS PHYSICAL DATA DISCOVERY FAQ SITE MAP
JPL Small-Body Database Browser
Search: [ help ]  
35202 (1994 PH8)
Classification: Main-belt Asteroid          SPK-ID: 2035202
Ephemeris | Orbit Diagram | Orbital Elements | Mission Design | Physical Parameters | Discovery Circumstances | Close-Approach Data ]

[ show orbit diagram ]
Orbital Elements at Epoch 2459000.5 (2020-May-31.0) TDB
Reference: JPL 16 (heliocentric ecliptic J2000)
 Element Value Uncertainty (1-sigma)   Units 
e .1630905580794538 3.4186e-08  
a 3.078869549943859 1.5326e-08 au
q 2.576734996789678 1.0642e-07 au
i .09486553860705882 4.0354e-06 deg
node 227.7762768980503 0.0024431 deg
peri 192.7791280104036 0.0024432 deg
M 217.636693832923 1.4108e-05 deg
tp 2459780.834708040871
(2022-Jul-20.33470804)
8.0645e-05 TDB
period 1973.264758020065
5.40
1.4734e-05
4.034e-08
d
yr
n .1824387723628211 1.3622e-09 deg/d
Q 3.581004103098039 1.7826e-08 au
  Orbit Determination Parameters
   # obs. used (total)      1053  
   data-arc span      9060 days (24.80 yr)  
   first obs. used      1994-08-10  
   last obs. used      2019-05-31  
   planetary ephem.      DE431  
   SB-pert. ephem.      SB431-N16  
   condition code      0  
   norm. resid. RMS      .5647  
   source      ORB  
   producer      Otto Matic  
   solution date      2020-Feb-23 03:44:51  

Additional Information
 Earth MOID = 1.58947 au 
 Jupiter MOID = 1.75212 au 
 T_jup = 3.208 
[ hide covariance matrix ]
Orbital Elements at Epoch 2456407.5 (2013-Apr-25.0) TDB
Reference: JPL 16 (heliocentric ecliptic J2000)
 Element Value Uncertainty (1-sigma)   Units 
e .1674208915287445 3.4226e-08  
q 2.556151744213433 1.0648e-07 au
tp 2455844.326580845602
(2011-Oct-09.82658085)
6.6554e-05 TDB
node 228.1742497855146 0.0024638 deg
peri 192.3140921921839 0.0024638 deg
i .09409952965975436 4.0435e-06 deg
  Orbit Determination Parameters
   # obs. used (total)      1053  
   data-arc span      9060 days (24.80 yr)  
   first obs. used      1994-08-10  
   last obs. used      2019-05-31  
   planetary ephem.      DE431  
   SB-pert. ephem.      SB431-N16  
   condition code      0  
   norm. resid. RMS      .5647  
   source      ORB  
   producer      Otto Matic  
   solution date      2020-Feb-23 03:44:51  

Additional Information
 Jupiter MOID = 1.75212 au 
 T_jup = 3.208 
Orbit Covariance (6×6)
  e q tp node peri i
e 1.171440442438064E-15 -3.617009582669677E-15 -2.76400695482004E-13 9.623447171480658E-15 -7.812755193944797E-14 9.963429604901863E-18
q -3.617009582669677E-15 1.13388495617774E-14 1.003846097133598E-12 -1.458895750077833E-14 2.629934433680694E-13 -7.461782433550541E-17
tp -2.76400695482004E-13 1.003846097133598E-12 4.429429213745263E-9 3.259595161972386E-12 8.634745894806072E-10 2.894117427970943E-14
node 9.623447171480658E-15 -1.458895750077833E-14 3.259595161972386E-12 6.070128201406922E-6 -6.070116973149327E-6 -1.058625661705231E-9
peri -7.812755193944797E-14 2.629934433680694E-13 8.634745894806072E-10 -6.070116973149327E-6 6.070284276737332E-6 1.058621887491268E-9
i 9.963429604901863E-18 -7.461782433550541E-17 2.894117427970943E-14 -1.058625661705231E-9 1.058621887491268E-9 1.634997908143768E-11

Ephemeris | Orbit Diagram | Orbital Elements | Mission Design | Physical Parameters | Discovery Circumstances | Close-Approach Data ]

Physical Parameter Table
Parameter Symbol Value Units Sigma Reference Notes
absolute magnitude H 14.5   n/a MPO436011  
diameter diameter 6.670 km 0.202 urn:nasa:pds:neowise_diameters_albedos::2.0[mainbelt] (http://adsabs.harvard.edu/abs/2011ApJ...741...68M)  
geometric albedo albedo 0.052   0.011 urn:nasa:pds:neowise_diameters_albedos::2.0[mainbelt] (http://adsabs.harvard.edu/abs/2011ApJ...741...68M)  

35202 (1994 PH8)          Discovered 1994-Aug-10 by Elst, E. W. at La Silla
Reference: 20020227/Numbers.arcLast Updated: 2004-04-19

[ hide close-approach data ]
Close-Approach Data   ...sorted by Date/Time (TDB)
Date/Time (TDB) Time Uncertainty
(days_HH:MM)
Body Nominal Distance (au) Minimum Distance (au) Maximum Distance (au) V-relative (km/s) V-infinity (km/s) JD (TDB) Time Uncertainty (minutes) Semi-major axis (km) Semi-minor axis (km) range-LOV angle (deg) N-sigma BP Orbit Ref. Reference Modified
1902-Jul-19 00:53 00:03 Jupiter 1.93053737454393 1.93053630374322 1.93053844534518 3.04933083632352 2.90188203307318 2415949.536726578 2.66292590925143 87.9370694612207 17.2929949556917 73.3149809625425 2054564.95602485 T 16 CATAB v2.0f-lin.ifort 2020-Feb-23 03:45:06 2020-Feb-23 03:45
1912-Mar-22 03:54 00:02 Jupiter 1.7804878390791 1.78048740284693 1.78048827531126 1.79645464733826 1.50857527785472 2419483.662748514 2.46594453461964 68.0165757966788 24.8619250038909 86.5095542846567 2869458.08842599 T 16 CATAB v2.0f-lin.ifort 2020-Feb-23 03:45:06 2020-Feb-23 03:45
1961-Oct-18 02:26 00:01 Jupiter 1.90651793203472 1.90651728884905 1.90651857522039 2.90934792915106 2.75240820053002 2437590.601194735 1.25478509640751 50.9432276052943 15.1969900448658 80.286390862198 2219460.57607698 T 16 CATAB v2.0f-lin.ifort 2020-Feb-23 03:45:06 2020-Feb-23 03:45
1971-Jun-21 01:35 00:01 Jupiter 1.78778717668805 1.78778682431005 1.78778752906584 1.80951227629169 1.52537517091921 2441123.566018796 1.02792323672482 55.5683790385324 22.6104184049258 -87.7753260116641 2870050.35997138 T 16 CATAB v2.0f-lin.ifort 2020-Feb-23 03:45:06 2020-Feb-23 03:45
2021-Jan-16 15:20 < 00:01 Jupiter 1.88267937540437 1.88267897380101 1.88267977700762 2.77311609312342 2.60583335720218 2459231.139052914 0.279481936460579 38.8464169366404 10.5894548574266 -88.3446266555214 3152411.81086181 T 16 CATAB v2.0f-lin.ifort 2020-Feb-23 03:45:06 2020-Feb-23 03:45
2030-Sep-18 17:24 < 00:01 Jupiter 1.79726310312875 1.79726273544874 1.79726347080855 1.83131863871594 1.55279060173732 2462763.225043044 0.482921085983638 52.2236610637744 20.6960541139163 -86.7100884537226 2814616.58397824 T 16 CATAB v2.0f-lin.ifort 2020-Feb-23 03:45:06 2020-Feb-23 03:45
2080-Apr-16 20:34 00:02 Jupiter 1.85925642845923 1.85925587293863 1.85925698397971 2.64244070047382 2.46401130480937 2480871.356953464 1.65559598119132 56.1748586836546 9.32882426980955 88.0289901501212 2269143.21758971 T 16 CATAB v2.0f-lin.ifort 2020-Feb-23 03:45:06 2020-Feb-23 03:45
2089-Dec-17 07:58 00:02 Jupiter 1.80901007254649 1.80900945751409 1.80901068757878 1.86236725169489 1.59121435858579 2484402.831876293 1.89509510131637 66.7371347038051 18.4892521227546 -88.6444908714989 2480607.46310131 T 16 CATAB v2.0f-lin.ifort 2020-Feb-23 03:45:06 2020-Feb-23 03:45
2139-Jul-18 01:18 00:03 Jupiter 1.83673861871729 1.83673775925168 1.83673947818301 2.51970426227279 2.32950598498056 2502511.554309289 3.10442233946225 80.805499928667 7.44985204427443 88.4908022482579 1871480.03930347 T 16 CATAB v2.0f-lin.ifort 2020-Feb-23 03:45:06 2020-Feb-23 03:45
2149-Mar-18 05:07 00:03 Jupiter 1.82280055752391 1.82279953557612 1.822801579472 1.90215488020551 1.6397650106583 2506042.713501356 3.32536420348383 97.144535705616 15.8570598988293 -89.7945551487502 2264321.89056642 T 16 CATAB v2.0f-lin.ifort 2020-Feb-23 03:45:06 2020-Feb-23 03:45
2198-Oct-16 13:41 00:05 Jupiter 1.81553003653099 1.81552889255302 1.81553118050927 2.4065870669555 2.20421769722698 2524152.070352000 4.55290243693312 103.845877454272 5.41659726121206 -87.7755074747832 1688427.65825852 T 16 CATAB v2.0f-lin.ifort 2020-Feb-23 03:45:06 2020-Feb-23 03:45

Alternate Designations
 1994 PH8 = 2000 UN7 
Ephemeris | Orbit Diagram | Orbital Elements | Mission Design | Physical Parameters | Discovery Circumstances | Close-Approach Data ]
ABOUT SSD CREDITS/AWARDS PRIVACY/COPYRIGHT GLOSSARY LINKS
FirstGov 2020-Jul-04 03:55 UT
(server date/time)  
NASA Home Page
Site Manager:   Ryan S. Park
Webmaster  Alan B. Chamberlin